When you browse on this site, cookies collect data to enhance your experience and personalize the content and advertising you see.
Visit our Privacy Policy to learn more. By continuing to use the site, you agree to this use of cookies and data.
  • In Czech Republic
  • List of Countries
  • For 7 days
  • Water Temperature
  • Weather Map
  • Weather Widgets
  • user-avatar
    Login

    Hourly Weather Istres

    Today, 28 May, Thursday

    Time Temperature Precipitation Wind Pressure Humidity
    00:00 +19°C° 0 mm 1 mps 770 mmHg 69%
    01:00 +19°C° 0 mm 1 mps 769 mmHg 70%
    02:00 +19°C° 0 mm 1 mps 769 mmHg 71%
    03:00 +18°C° 0 mm 1 mps 769 mmHg 72%
    04:00 +18°C° 0 mm 2 mps 769 mmHg 70%
    05:00 +18°C° 0 mm 2 mps 768 mmHg 69%
    06:00 +19°C° 0 mm 2 mps 768 mmHg 67%
    07:00 +20°C° 0 mm 3 mps 768 mmHg 61%
    08:00 +22°C° 0 mm 3 mps 768 mmHg 55%
    09:00 +25°C° 0 mm 4 mps 768 mmHg 50%
    10:00 +26°C° 0 mm 4 mps 767 mmHg 46%
    11:00 +27°C° 0 mm 5 mps 767 mmHg 42%
    12:00 +28°C° 0 mm 6 mps 766 mmHg 39%
    13:00 +27°C° 0 mm 6 mps 766 mmHg 39%
    14:00 +27°C° 0 mm 6 mps 765 mmHg 39%
    15:00 +27°C° 0 mm 6 mps 764 mmHg 39%
    16:00 +26°C° 0 mm 6 mps 764 mmHg 45%
    17:00 +24°C° 0 mm 6 mps 764 mmHg 51%
    18:00 +23°C° 0 mm 6 mps 763 mmHg 56%
    19:00 +22°C° 0 mm 5 mps 763 mmHg 60%
    20:00 +21°C° 0 mm 5 mps 764 mmHg 64%
    21:00 +20°C° 0 mm 5 mps 764 mmHg 68%
    22:00 +20°C° 0 mm 5 mps 764 mmHg 68%
    23:00 +20°C° 0 mm 4 mps 763 mmHg 67%

    Tomorrow, 29 May, Friday

    Time Temperature Precipitation Wind Pressure Humidity
    00:00 +19°C° 0 mm 4 mps 763 mmHg 67%
    01:00 +19°C° 0 mm 4 mps 762 mmHg 69%
    02:00 +19°C° 0 mm 4 mps 762 mmHg 70%
    03:00 +18°C° 0 mm 4 mps 762 mmHg 71%
    04:00 +18°C° 0 mm 4 mps 762 mmHg 70%
    05:00 +17°C° 0 mm 5 mps 761 mmHg 69%
    06:00 +19°C° 0 mm 5 mps 761 mmHg 68%
    07:00 +20°C° 0 mm 5 mps 761 mmHg 63%
    08:00 +21°C° 0 mm 4 mps 761 mmHg 58%
    09:00 +23°C° 0 mm 4 mps 761 mmHg 53%
    10:00 +23°C° 0 mm 4 mps 761 mmHg 51%
    11:00 +25°C° 0 mm 3 mps 760 mmHg 49%
    12:00 +26°C° 0 mm 3 mps 760 mmHg 47%
    13:00 +26°C° 0.2 mm 4 mps 760 mmHg 49%
    14:00 +26°C° 0.2 mm 4 mps 760 mmHg 51%
    15:00 +25°C° 0.2 mm 4 mps 760 mmHg 54%
    16:00 +23°C° 0.1 mm 5 mps 761 mmHg 57%
    17:00 +22°C° 0.1 mm 5 mps 761 mmHg 60%
    18:00 +21°C° 0.1 mm 6 mps 761 mmHg 63%
    19:00 +20°C° 0 mm 5 mps 761 mmHg 66%
    20:00 +20°C° 0 mm 4 mps 762 mmHg 69%
    21:00 +19°C° 0 mm 2 mps 762 mmHg 71%
    22:00 +18°C° 0 mm 2 mps 762 mmHg 72%
    23:00 +18°C° 0 mm 2 mps 762 mmHg 73%

    Day after tomorrow, 30 May, Saturday

    Time Temperature Precipitation Wind Pressure Humidity
    00:00 +19°C° 0 mm 1 mps 762 mmHg 75%
    01:00 +18°C° 0 mm 1 mps 762 mmHg 76%
    02:00 +18°C° 0 mm 1 mps 761 mmHg 77%
    03:00 +18°C° 0 mm 1 mps 761 mmHg 78%
    04:00 +18°C° 0 mm 1 mps 761 mmHg 76%
    05:00 +19°C° 0 mm 1 mps 761 mmHg 73%
    06:00 +20°C° 0 mm 1 mps 761 mmHg 71%
    07:00 +21°C° 0 mm 1 mps 761 mmHg 66%
    08:00 +21°C° 0 mm 2 mps 761 mmHg 60%
    09:00 +24°C° 0 mm 2 mps 761 mmHg 54%
    10:00 +24°C° 0 mm 3 mps 761 mmHg 52%
    11:00 +25°C° 0 mm 4 mps 761 mmHg 50%
    12:00 +25°C° 0 mm 5 mps 761 mmHg 49%
    13:00 +25°C° 0 mm 5 mps 760 mmHg 50%
    14:00 +25°C° 0 mm 5 mps 760 mmHg 51%
    15:00 +23°C° 0 mm 5 mps 760 mmHg 52%
    16:00 +23°C° 0 mm 4 mps 760 mmHg 54%
    17:00 +22°C° 0 mm 4 mps 760 mmHg 56%
    18:00 +21°C° 0 mm 3 mps 760 mmHg 58%
    19:00 +21°C° 0 mm 3 mps 760 mmHg 63%
    20:00 +20°C° 0 mm 3 mps 761 mmHg 67%
    21:00 +19°C° 0 mm 2 mps 761 mmHg 72%
    22:00 +19°C° 0 mm 2 mps 761 mmHg 74%
    23:00 +18°C° 0 mm 2 mps 761 mmHg 75%

    31 May, Sunday

    Time Temperature Precipitation Wind Pressure Humidity
    00:00 +18°C° 0 mm 2 mps 760 mmHg 77%
    01:00 +18°C° 0 mm 2 mps 760 mmHg 78%
    02:00 +18°C° 0 mm 1 mps 760 mmHg 79%
    03:00 +18°C° 0 mm 1 mps 760 mmHg 80%
    04:00 +18°C° 0 mm 1 mps 760 mmHg 76%
    05:00 +19°C° 0 mm 1 mps 760 mmHg 73%
    06:00 +19°C° 0 mm 1 mps 760 mmHg 70%
    07:00 +21°C° 0 mm 1 mps 760 mmHg 63%
    08:00 +23°C° 0 mm 1 mps 760 mmHg 56%
    09:00 +24°C° 0 mm 1 mps 761 mmHg 49%
    10:00 +25°C° 0 mm 2 mps 761 mmHg 47%
    11:00 +26°C° 0 mm 3 mps 760 mmHg 44%
    12:00 +27°C° 0 mm 3 mps 760 mmHg 42%
    13:00 +27°C° 0 mm 4 mps 760 mmHg 43%
    14:00 +26°C° 0 mm 4 mps 760 mmHg 45%
    15:00 +26°C° 0 mm 5 mps 759 mmHg 46%
    16:00 +25°C° 0 mm 5 mps 759 mmHg 52%
    17:00 +23°C° 0 mm 4 mps 759 mmHg 57%
    18:00 +22°C° 0 mm 4 mps 759 mmHg 62%
    19:00 +22°C° 0 mm 3 mps 760 mmHg 69%
    20:00 +21°C° 0 mm 2 mps 760 mmHg 75%
    21:00 +21°C° 0 mm 1 mps 760 mmHg 81%
    22:00 +21°C° 0 mm 1 mps 760 mmHg 82%
    23:00 +20°C° 0 mm 1 mps 760 mmHg 82%

    1 June, Monday

    Time Temperature Precipitation Wind Pressure Humidity
    00:00 +18°C° 0 mm 0 mps 760 mmHg 83%
    01:00 +20°C° 0 mm 1 mps 760 mmHg 84%
    02:00 +19°C° 0 mm 1 mps 760 mmHg 84%
    03:00 +19°C° 0 mm 1 mps 760 mmHg 85%
    04:00 +20°C° 0 mm 1 mps 760 mmHg 82%
    05:00 +20°C° 0 mm 1 mps 760 mmHg 79%
    06:00 +20°C° 0 mm 2 mps 760 mmHg 76%
    07:00 +21°C° 0 mm 2 mps 760 mmHg 70%
    08:00 +24°C° 0 mm 2 mps 760 mmHg 64%
    09:00 +25°C° 0 mm 2 mps 760 mmHg 58%
    10:00 +26°C° 0.1 mm 3 mps 759 mmHg 57%
    11:00 +26°C° 0.1 mm 4 mps 759 mmHg 56%
    12:00 +26°C° 0.1 mm 5 mps 759 mmHg 55%
    13:00 +26°C° 0.1 mm 5 mps 759 mmHg 57%
    14:00 +26°C° 0.1 mm 5 mps 759 mmHg 58%
    15:00 +26°C° 0.1 mm 5 mps 759 mmHg 59%
    16:00 +25°C° 0 mm 5 mps 759 mmHg 63%
    17:00 +23°C° 0 mm 5 mps 759 mmHg 68%
    18:00 +23°C° 0 mm 4 mps 758 mmHg 72%
    19:00 +22°C° 0.2 mm 4 mps 759 mmHg 76%
    20:00 +21°C° 0.2 mm 3 mps 759 mmHg 79%
    21:00 +21°C° 0.2 mm 3 mps 759 mmHg 82%
    22:00 +20°C° 0.2 mm 3 mps 759 mmHg 82%
    23:00 +20°C° 0.2 mm 3 mps 759 mmHg 82%

    2 June, Tuesday

    Time Temperature Precipitation Wind Pressure Humidity
    00:00 +20°C° 0.2 mm 3 mps 759 mmHg 82%
    01:00 +20°C° 0.1 mm 3 mps 759 mmHg 82%
    02:00 +19°C° 0.1 mm 2 mps 758 mmHg 81%
    03:00 +19°C° 0.1 mm 2 mps 758 mmHg 81%
    04:00 +20°C° 0.1 mm 2 mps 758 mmHg 78%
    05:00 +20°C° 0.1 mm 2 mps 759 mmHg 76%
    06:00 +21°C° 0.1 mm 2 mps 759 mmHg 73%
    07:00 +23°C° 0.1 mm 2 mps 759 mmHg 67%
    08:00 +24°C° 0.1 mm 2 mps 759 mmHg 61%
    09:00 +25°C° 0.1 mm 2 mps 759 mmHg 55%
    10:00 +26°C° 0.2 mm 3 mps 759 mmHg 54%
    11:00 +26°C° 0.2 mm 3 mps 759 mmHg 54%
    12:00 +26°C° 0.2 mm 4 mps 758 mmHg 53%
    13:00 +26°C° 0.2 mm 4 mps 758 mmHg 53%
    14:00 +26°C° 0.2 mm 4 mps 758 mmHg 53%
    15:00 +26°C° 0.2 mm 4 mps 757 mmHg 53%
    16:00 +26°C° 0 mm 4 mps 757 mmHg 55%
    17:00 +25°C° 0 mm 3 mps 757 mmHg 58%
    18:00 +24°C° 0 mm 3 mps 757 mmHg 60%
    19:00 +22°C° 0 mm 3 mps 757 mmHg 65%
    20:00 +21°C° 0 mm 2 mps 757 mmHg 69%
    21:00 +20°C° 0 mm 2 mps 758 mmHg 73%
    22:00 +21°C° 0 mm 1 mps 758 mmHg 75%
    23:00 +21°C° 0 mm 1 mps 757 mmHg 77%
    Show more